Regional Weather Roundup
Issued by NWS

Home | Current Version | Previous Version | Graphics & Text | Print | Product List | Glossary On
Versions: 1 2 3 4 5 6 7 8 9 10 11 12 13 14 15 16 17 18 19 20 21 22 23 24 25 26 27 28 29 30 31 32 33 34 35 36 37 38 39 40 41 42 43 44 45 46 47 48 49 50
000
ASUS43 KLMK 040010
RWRKY
KENTUCKY REGIONAL WEATHER ROUNDUP
NATIONAL WEATHER SERVICE LOUISVILLE KY
800 PM EDT FRI JUL 03 2015

NOTE "FAIR" INDICATES FEW OR NO CLOUDS BELOW 12,000 FEET
WITH NO SIGNIFICANT WEATHER AND/OR OBSTRUCTIONS TO VISIBILITY.

KYZ001>023-026-027-061>063-070>075-040100-
WESTERN AND SOUTH CENTRAL KENTUCKY

CITY           SKY/WX    TMP DP  RH WIND       PRES   REMARKS
PADUCAH        CLOUDY    74  69  85 W8        29.88R
HENDERSON      CLOUDY    79  66  65 N6        29.84R
OWENSBORO      LGT RAIN  72  69  90 SE3       29.86R FOG
HOPKINSVILLE   PTSUNNY   74  68  81 SW13G21   29.88S
BOWLING GREEN  RAIN      72  68  87 W8        29.89R FOG
GLASGOW        CLOUDY    71  70  97 W6        29.89R
$$

KYZ024-025-028>034-038-045-046-053-040100-
NORTH CENTRAL KENTUCKY

CITY           SKY/WX    TMP DP  RH WIND       PRES   REMARKS
LOUISVILLE/SDF LGT RAIN  73  69  87 NE3       29.85R
LOUISVILLE/LOU LGT RAIN  71  68  90 CALM      29.85R FOG
FORT KNOX      CLOUDY    70  68  94 CALM      29.85F
$$

KYZ035>037-039>044-047>052-055>060-089>105-040100-
NORTHEAST KENTUCKY

CITY           SKY/WX    TMP DP  RH WIND       PRES   REMARKS
LEXINGTON      CLOUDY    70  68  93 S8        29.86R
COVINGTON      CLOUDY    73  64  73 E10       29.87R
FRANKFORT      CLOUDY    71  67  87 N13G20    29.86R
$$

KYZ054-064>069-076>088-106>120-040100-
SOUTHEAST KENTUCKY

CITY           SKY/WX    TMP DP  RH WIND       PRES   REMARKS
JACKSON        RAIN      69  67  93 VRB5      29.88S FOG
LONDON         HVY RAIN  72  66  81 MISG      29.90R
SOMERSET       TSTM      68  68 100 SW6       29.90R VSB 1
MIDDLESBORO    CLOUDY    74  70  89 CALM      29.90S
MONTICELLO     CLOUDY    72  71  96 SW10      29.92R THUNDER FOG
$$



USA.gov is the U.S. government's official web portal to all federal, state and local government web resources and services.